Regional Weather Roundup
Issued by NWS

Home | Current Version | Previous Version | Text Only | Print | Product List | Glossary Off
Versions: 1 2 3 4 5 6 7 8 9 10 11 12 13 14 15 16 17 18 19 20 21 22 23 24 25 26 27 28 29 30 31 32 33 34 35 36 37 38 39 40 41 42 43 44 45 46 47 48 49 50

883
ASUS43 KMPX 261710
RWRMN
WEATHER ROUNDUP FOR MINNESOTA
NATIONAL WEATHER SERVICE TWIN CITIES/CHANHASSEN MN
1200 PM CDT SUN MAR 26 2017


NOTE: "FAIR" INDICATES FEW OR NO CLOUDS BELOW 12,000 FEET WITH NO
SIGNIFICANT WEATHER AND/OR OBSTRUCTIONS TO VISIBILITY. N/A MEANS
CURRENT SKY AND/OR WEATHER CONDITIONS ARE NOT AVAILABLE.

MNZ060>063-068>070-261800-
   Twin Cities Metro

CITY           SKY/WX    TMP DP  RH WIND       PRES   REMARKS
TWIN CITIES    CLOUDY    39  35  86 NE7       29.93F
ST PAUL        CLOUDY    40  37  89 NE5       29.94F
CRYSTAL        CLOUDY    39  34  82 VRB5      29.92F
BLAINE         CLOUDY    39  39 100 N6        29.93F
LAKEVILLE      CLOUDY    37  37 100 NE5       29.91F FOG
EDEN PRAIRIE   CLOUDY    41  37  86 N7        29.91F
SOUTH ST PAUL  CLOUDY    39  37  93 NE6       29.92F
LAKE ELMO      CLOUDY    37  37 100 NE6       29.93F
$$
MNZ001>005-007-008-013>017-022>024-027-028-261800-
   Northwest Minnesota

CITY           SKY/WX    TMP DP  RH WIND       PRES   REMARKS
BEMIDJI        CLOUDY    38  33  80 CALM      29.96F
HALLOCK        CLOUDY    36  34  93 S8        29.97R FOG
ROSEAU         CLOUDY    39  34  81 W6        29.97R
WARROAD        CLOUDY    39  36  87 W6        29.97S
THIEF RVR FALL CLOUDY    39  35  86 S6        29.97
CROOKSTON      CLOUDY    39  37  93 SW7       29.97S
FOSSTON        CLOUDY    43  34  70 S5        29.96F
DETROIT LAKES  CLOUDY    41  34  75 CALM      29.95F
MOORHEAD       CLOUDY    37  36  93 S6        29.97S
PARK RAPIDS    CLOUDY    40  31  70 CALM      29.95F
MAHNOMEN       CLOUDY    42  34  74 CALM      29.96R
$$
MNZ006-009>011-018-025>026-261800-
   North Central Minnesota

CITY           SKY/WX    TMP DP  RH WIND       PRES   REMARKS
BAUDETTE       CLOUDY    41  33  73 SW8       29.96F
FLAG ISLAND    CLOUDY    34  30  86 S8        29.97R WCI  27
INTL FALLS     CLOUDY    40  31  70 VRB3      29.97F
WASKISH        CLOUDY    39  34  81 CALM      29.97F
BIG FORK       CLOUDY    39  32  75 CALM      29.97S
LONGVILLE      CLOUDY    37  32  81 N5        29.96S
GRAND RAPIDS   CLOUDY    38  32  79 CALM      29.98F
CRANE LAKE     CLOUDY    37  30  75 CALM      29.99F
ORR            CLOUDY    37  28  70 CALM      29.94F
COOK           CLOUDY    37  30  75 E3        29.97F
WALKER         CLOUDY    35  32  89 CALM      29.97S
$$
MNZ012-019>021-037-261800-
   Northeast Minnesota

CITY           SKY/WX    TMP DP  RH WIND       PRES   REMARKS
DULUTH         LGT RAIN  35  33  92 NE6       29.95F WCI  30
ELY            CLOUDY    34  30  86 CALM      29.96F
HIBBING        CLOUDY    34  31  88 CALM      29.96F
EVELETH        CLOUDY    35  31  85 NE5       29.97F WCI  31
DULUTH HARBOR  LGT RAIN  34  34 100 NE12      29.99F WCI  25
TWO HARBORS    DRIZZLE   37  34  87 NE3       29.95F
SILVER BAY     DRIZZLE   36  34  93 NE5       29.95F
GRAND MARAIS     N/A     34  33  96 NE7       29.99F WCI  28
G MARAIS ARPRT DRIZZLE   30  27  86 NE5       29.95F WCI  25
$$
MNZ029>031-032-039>041-046>048-054>057-064-261800-
   West Central Minnesota

CITY           SKY/WX    TMP DP  RH WIND       PRES   REMARKS
FERGUS FALLS   CLOUDY    41  34  75 CALM      29.99F
WHEATON        CLOUDY    39  36  87 SE3       29.99S
MORRIS         MOSUNNY   43  36  75 N5        29.95S
ALEXANDRIA     CLOUDY    41  33  73 N7        29.95F
ELBOW LAKE     CLOUDY    39  34  81 CALM      29.96F
WADENA         CLOUDY    39  32  75 N6        29.95S
GLENWOOD       SUNNY     39  34  81 NE6       29.95F
APPLETON       CLOUDY    39  36  87 CALM      29.96S
BENSON         CLOUDY    41  30  65 CALM      29.97F
ORTONVILLE     CLOUDY    37  36  93 NE3       29.97S
MADISON        CLOUDY    39  39 100 NE3       29.96S FOG
WILLMAR        PTSUNNY   39  36  87 NE5       29.96S
$$
MNZ033>034-036-042>043-049>051-058-059-261800-
   Central Minnesota

CITY           SKY/WX    TMP DP  RH WIND       PRES   REMARKS
ST CLOUD       CLOUDY    38  36  92 NE6       29.94F
SAUK CENTRE    CLOUDY    38  33  84 NE6       29.95S
PAYNESVILLE      N/A     37  37 100 N6        29.95S
AITKIN         CLOUDY    37  32  81 N6        29.95S
PINE RIVER     CLOUDY    39  34  81 NE3       29.99F
BRAINERD       CLOUDY    36  34  92 NE6       29.96F
STAPLES        CLOUDY    37  30  75 N5        29.95F
LONG PRAIRIE   CLOUDY    37  32  81 N8        29.95S
LITTLE FALLS   CLOUDY    36  32  87 N3        29.96S
LITCHFIELD     CLOUDY    39  37  93 N6        29.94S
BUFFALO        CLOUDY    38  35  86 N7        29.94F
MAPLE LAKE     CLOUDY    38  37  96 N6        29.94F
HUTCHINSON     CLOUDY    39  36  91 N6        29.94F
$$
MNZ037-044-045-052-053-261800-
   East Central Minnesota

CITY           SKY/WX    TMP DP  RH WIND       PRES   REMARKS
PRINCETON      CLOUDY    39  37  93 N6        29.94F
MORA           LGT RAIN  36  34  93 CALM      29.96F
CAMBRIDGE      CLOUDY    39  36  87 N5        29.92F
RUSH CITY      CLOUDY    37  35  91 N6        29.94F
MOOSE LAKE     CLOUDY    36  32  87 NE7       29.93F
CLOQUET        CLOUDY    34  32  93 NE3       29.95F
MCGREGOR       CLOUDY    36  34  93 NE3       29.95F
$$
MNZ071>073-080-081-089-090-097-098-261800-
   Southwest Minnesota

CITY           SKY/WX    TMP DP  RH WIND       PRES   REMARKS
MONTEVIDEO     CLOUDY    39  37  93 NE5       29.97F
GRANITE FALLS  CLOUDY    40  38  91 N5        29.97S
CANBY          CLOUDY    39  38  98 CALM      29.96F FOG
MARSHALL       CLOUDY    39  36  89 NE7       29.95S
REDWOOD FALLS  CLOUDY    41  36  82 N7        29.94S
OLIVIA         CLOUDY    37  36  93 N6        29.94S
PIPESTONE      CLOUDY    39  36  87 E8        29.91F
WINDOM         CLOUDY    39  37  93 N8        29.92S
WORTHINGTON    CLOUDY    39  37  92 N9        29.92F
JACKSON        CLOUDY    37  36  93 N9        29.91F
TRACY          CLOUDY    38  38  99 N7        29.94S
SLAYTON        CLOUDY    37  37  99 N8        29.93S
$$
MNZ065>067-074>077-082>085-091>093-261800-
   South Central Minnesota

CITY           SKY/WX    TMP DP  RH WIND       PRES   REMARKS
MANKATO        CLOUDY    39  36  89 N8        29.92F
NEW ULM        CLOUDY    37  36  93 N8        29.92F
ST JAMES       CLOUDY    39  37  93 CALM      29.93F
FAIRMONT       CLOUDY    38  37  97 N10       29.92S
GLENCOE        CLOUDY    39  38  93 N6        29.92F
FARIBAULT      CLOUDY    37  37 100 NE6       29.92S FOG
OWATONNA       CLOUDY    37  36  93 N6        29.90F FOG
WASECA         CLOUDY    37  36  93 N7        29.92S
ALBERT LEA     CLOUDY    37  37 100 N6        29.89F FOG
$$
MNZ078>079-086>088-094>096-261800-
   Southeast Minnesota

CITY           SKY/WX    TMP DP  RH WIND       PRES   REMARKS
ROCHESTER      CLOUDY    38  38 100 N9        29.88F FOG
RED WING       CLOUDY    39  37  93 CALM      29.91F
STANTON        CLOUDY    39  37  92 N6        29.91F
DODGE CENTER   CLOUDY    37  37 100 NE5       29.89F FOG
WINONA         CLOUDY    37  36  93 NE5       29.92R
AUSTIN         CLOUDY    37  36  93 N6        29.88F FOG
PRESTON        CLOUDY    38  36  95 N7        29.88F
$$
ABBREVIATIONS USED IN REMARKS
   TC - TEMPERATURES IN CELSIUS
  WCI - WIND CHILL INDEX
   HX - HEAT INDEX
  VSB - VISIBILITY
$$




USA.gov is the U.S. government's official web portal to all federal, state and local government web resources and services.